Terug naar catalogus

SL-3 DEB

ActiefPO
NORAD 8039·DEBRIS·🇷🇺 Russia

Gelanceerd Jul 11, 1975 vanaf Plesetsk Cosmodrome

Loading…

Volgende Passages (komende 24 uur)

TLE

VersSource: Space-Track

Epoch: Sep 14, 2026, 13:32 UTC

1 08039U 75064C   26257.56417866  .00000210  00000-0  11349-3 0  9991
2 08039  81.3010 345.7294 0020423 310.1464  49.7917 14.09332616630279

Volg SL-3 DEB in realtime met AllMySat

Download on the App Store